| time (UTC) | temp F | wind direction | speed knots | gust knots | rain 1hr in | rain 24hr in | rain mn in | humidity % | barometer mb |
| 20260502152004 | 46 | 293 | 3.5 | 6.1 | 0.00 | 0.00 | 0.00 | 48 | 1018.6 |
| 20260502150501 | 44 | 45 | 2.6 | 3.5 | 0.00 | 0.00 | 0.00 | 50 | 1018.5 |
| 20260502130433 | 42 | 315 | 1.7 | 3.5 | 0.00 | 0.00 | 0.00 | 70 | 1018.7 |
| 20260502123428 | 40 | 263 | 1.7 | 5.2 | 0.00 | 0.00 | 0.00 | 75 | 1018.6 |
| 20260502121925 | 40 | 20 | 0.0 | 1.7 | 0.00 | 0.00 | 0.00 | 79 | 1018.7 |
| 20260502120422 | 39 | 297 | 0.9 | 1.7 | 0.00 | 0.00 | 0.00 | 80 | 1018.4 |
| 20260502114918 | 39 | 229 | 0.9 | 0.9 | 0.00 | 0.00 | 0.00 | 81 | 1018.4 |
| 20260502113415 | 37 | 221 | 0.0 | 0.0 | 0.00 | 0.00 | 0.00 | 90 | 1018.3 |
| 20260502111914 | 34 | 201 | 0.0 | 0.0 | 0.00 | 0.00 | 0.00 | 94 | 1018.1 |
| 20260502110411 | 33 | 200 | 0.0 | 0.0 | 0.00 | 0.00 | 0.00 | 93 | 1018.0 |
| 20260502104909 | 33 | 191 | 0.0 | 0.0 | 0.00 | 0.00 | 0.00 | 92 | 1018.1 |
| 20260502103407 | 32 | 177 | 0.0 | 0.0 | 0.00 | 0.00 | 0.00 | 90 | 1018.2 |
| 20260502101903 | 34 | 177 | 0.0 | 0.0 | 0.00 | 0.00 | 0.00 | 90 | 1017.9 |
| 20260502100359 | 34 | 177 | 0.0 | 0.0 | 0.00 | 0.00 | 0.00 | 89 | 1017.9 |
| 20260502090349 | 35 | 176 | 0.0 | 0.0 | 0.00 | 0.00 | 0.00 | 85 | 1017.7 |
| 20260502070338 | 37 | 44 | 0.0 | 0.0 | 0.00 | 0.00 | 0.00 | 82 | 1017.4 |
| 20260502064838 | 37 | 38 | 0.0 | 0.9 | 0.00 | 0.00 | 0.00 | 82 | 1017.4 |
| 20260502063336 | 37 | 36 | 0.0 | 0.0 | 0.00 | 0.00 | 0.00 | 82 | 1017.8 |
| 20260502061836 | 37 | 51 | 0.0 | 0.9 | 0.00 | 0.00 | 0.00 | 82 | 1017.6 |
| 20260502060335 | 38 | 72 | 0.0 | 0.9 | 0.00 | 0.00 | 0.00 | 81 | 1017.9 |
| 20260502054831 | 38 | 117 | 0.0 | 2.6 | 0.00 | 0.00 | 0.00 | 80 | 1017.9 |
| 20260502053328 | 38 | 90 | 0.0 | 0.0 | 0.00 | 0.00 | 0.00 | 78 | 1017.9 |
| 20260502051827 | 38 | 120 | 0.0 | 0.9 | 0.00 | 0.00 | 0.00 | 77 | 1018.0 |
| 20260502050323 | 38 | 135 | 0.9 | 1.7 | 0.00 | 0.00 | 0.00 | 76 | 1017.8 |
| 20260502044820 | 38 | 112 | 0.0 | 0.0 | 0.00 | 0.00 | 0.00 | 76 | 1017.7 |
| 20260502043317 | 38 | 99 | 0.0 | 1.7 | 0.00 | 0.00 | 0.00 | 75 | 1017.5 |
| 20260502041817 | 38 | 236 | 0.0 | 1.7 | 0.00 | 0.00 | 0.00 | 75 | 1017.5 |
| 20260502040314 | 39 | 67 | 1.7 | 2.6 | 0.00 | 0.00 | 0.00 | 75 | 1017.4 |
| 20260502034810 | 39 | 26 | 0.0 | 1.7 | 0.00 | 0.02 | 0.02 | 74 | 1017.4 |
| 20260502033309 | 40 | 24 | 0.9 | 5.2 | 0.00 | 0.02 | 0.02 | 71 | 1017.2 |
| 20260502031806 | 41 | 347 | 0.9 | 3.5 | 0.00 | 0.02 | 0.02 | 69 | 1017.2 |
| 20260502030306 | 42 | 267 | 1.7 | 3.5 | 0.00 | 0.02 | 0.02 | 61 | 1016.9 |
| 20260502024804 | 43 | 271 | 0.0 | 1.7 | 0.00 | 0.02 | 0.02 | 62 | 1017.0 |
| 20260502023303 | 43 | 329 | 0.0 | 1.7 | 0.00 | 0.02 | 0.02 | 61 | 1017.0 |
| 20260502021759 | 43 | 315 | 1.7 | 2.6 | 0.00 | 0.02 | 0.02 | 61 | 1017.0 |
| 20260502020257 | 43 | 326 | 0.0 | 3.5 | 0.00 | 0.02 | 0.02 | 63 | 1016.6 |
| 20260502014754 | 43 | 263 | 2.6 | 5.2 | 0.00 | 0.02 | 0.02 | 63 | 1016.5 |
| 20260502013254 | 43 | 292 | 1.7 | 2.6 | 0.00 | 0.02 | 0.02 | 63 | 1016.3 |
| 20260502011752 | 43 | 317 | 1.7 | 2.6 | 0.00 | 0.02 | 0.02 | 62 | 1016.3 |
| 20260502010247 | 44 | 261 | 2.6 | 2.6 | 0.00 | 0.02 | 0.02 | 62 | 1016.2 |
| 20260502004745 | 44 | 23 | 0.0 | 0.9 | 0.00 | 0.02 | 0.02 | 62 | 1016.0 |
| 20260502003242 | 44 | 314 | 1.7 | 2.6 | 0.00 | 0.02 | 0.02 | 62 | 1016.1 |
| 20260502001738 | 44 | 274 | 0.0 | 0.9 | 0.00 | 0.02 | 0.02 | 63 | 1015.9 |
| 20260502000240 | 44 | 256 | 0.0 | 1.7 | 0.00 | 0.02 | 0.02 | 63 | 1015.8 |
| 20260501234736 | 44 | 277 | 0.0 | 0.9 | 0.00 | 0.02 | 0.02 | 63 | 1015.8 |
| 20260501233235 | 45 | 247 | 0.0 | 0.9 | 0.00 | 0.02 | 0.02 | 65 | 1015.6 |
| 20260501231731 | 45 | 265 | 0.9 | 5.2 | 0.00 | 0.02 | 0.02 | 63 | 1015.7 |
| 20260501230225 | 45 | 297 | 0.9 | 1.7 | 0.00 | 0.02 | 0.02 | 65 | 1015.7 |
| 20260501224721 | 45 | 327 | 1.7 | 3.5 | 0.00 | 0.02 | 0.02 | 63 | 1015.6 |
| 20260501223217 | 46 | 17 | 0.0 | 1.7 | 0.00 | 0.02 | 0.02 | 61 | 1015.7 |
| 20260501221713 | 46 | 212 | 0.0 | 1.7 | 0.00 | 0.02 | 0.02 | 65 | 1015.4 |
| 20260501220211 | 47 | 276 | 1.7 | 3.5 | 0.00 | 0.02 | 0.02 | 56 | 1015.3 |
| 20260501214710 | 48 | 49 | 0.0 | 2.6 | 0.00 | 0.02 | 0.02 | 56 | 1015.0 |
| 20260501213205 | 48 | 333 | 2.6 | 6.1 | 0.00 | 0.02 | 0.02 | 53 | 1014.9 |
| 20260501211701 | 48 | 224 | 1.7 | 3.5 | 0.00 | 0.02 | 0.02 | 54 | 1014.7 |
| 20260501210158 | 48 | 287 | 1.7 | 3.5 | 0.00 | 0.02 | 0.02 | 55 | 1014.9 |
| 20260501204654 | 48 | 52 | 0.9 | 2.6 | 0.00 | 0.02 | 0.02 | 56 | 1014.7 |
| 20260501203150 | 50 | 291 | 0.9 | 2.6 | 0.00 | 0.02 | 0.02 | 54 | 1014.7 |
| 20260501201646 | 50 | 271 | 0.0 | 5.2 | 0.00 | 0.02 | 0.02 | 58 | 1014.6 |
| 20260501200143 | 47 | 226 | 2.6 | 3.5 | 0.00 | 0.02 | 0.02 | 54 | 1014.7 |
| 20260501194643 | 48 | 169 | 0.9 | 3.5 | 0.00 | 0.02 | 0.02 | 57 | 1014.6 |
| 20260501193140 | 49 | 260 | 0.9 | 3.5 | 0.00 | 0.02 | 0.02 | 55 | 1014.4 |
| 20260501191637 | 51 | 295 | 1.7 | 3.5 | 0.00 | 0.02 | 0.02 | 52 | 1014.6 |
| 20260501190137 | 49 | 45 | 1.7 | 5.2 | 0.00 | 0.02 | 0.02 | 53 | 1014.3 |
| 20260501184632 | 49 | 271 | 1.7 | 3.5 | 0.00 | 0.02 | 0.02 | 53 | 1014.1 |
| 20260501183132 | 50 | 239 | 1.7 | 3.5 | 0.00 | 0.02 | 0.02 | 51 | 1014.0 |
| 20260501181629 | 50 | 280 | 0.9 | 6.1 | 0.00 | 0.02 | 0.02 | 50 | 1014.2 |
| 20260501180125 | 50 | 247 | 0.9 | 2.6 | 0.00 | 0.02 | 0.02 | 50 | 1013.9 |
| 20260501174621 | 50 | 83 | 0.0 | 0.9 | 0.00 | 0.02 | 0.02 | 55 | 1013.9 |
| 20260501173119 | 49 | 347 | 1.7 | 3.5 | 0.00 | 0.02 | 0.02 | 54 | 1014.0 |
| 20260501171618 | 47 | 325 | 0.0 | 2.6 | 0.00 | 0.02 | 0.02 | 61 | 1014.3 |
| 20260501170115 | 48 | 312 | 1.7 | 3.5 | 0.00 | 0.02 | 0.02 | 59 | 1014.0 |
| 20260501164614 | 48 | 6 | 0.0 | 3.5 | 0.00 | 0.02 | 0.02 | 58 | 1014.3 |
| 20260501163109 | 47 | 26 | 1.7 | 3.5 | 0.00 | 0.02 | 0.02 | 60 | 1014.3 |
| 20260501161606 | 49 | 255 | 1.7 | 3.5 | 0.00 | 0.02 | 0.02 | 60 | 1014.2 |